EW9290 Weather Reports


Display with metric or nautical units.
time (UTC)temp
F
wind
direction
speed
MPH
gust
MPH
rain 1hr
in
rain 24hr
in
rain mn
in
humidity
%
barometer
mb
20260502180833 42 9 3.0 3.0 0.00 0.20 0.20 67 1015.0
20260502180330 41 344 3.0 5.0 0.00 0.20 0.20 69 1015.0
20260502170249 42 71 1.0 1.0 0.00 0.20 0.20 77 1015.1
20260502164237 41 66 1.0 1.0 0.00 0.20 0.20 80 1015.5
20260502163732 40 31 1.0 1.0 0.00 0.20 0.20 82 1015.3
20260502163229 39 25 2.0 2.0 0.00 0.20 0.20 82 1015.7
20260502162726 39 33 1.0 2.0 0.00 0.20 0.20 83 1015.6
20260502162223 38 24 2.0 2.0 0.00 0.20 0.20 84 1015.5
20260502161720 38 39 3.0 3.0 0.00 0.20 0.20 84 1015.4
20260502161216 38 0 3.0 3.0 0.00 0.20 0.20 85 1015.4
20260502160715 38 356 6.0 7.0 0.00 0.20 0.20 84 1015.4
20260502160214 38 22 5.0 7.0 0.00 0.20 0.20 85 1015.4
20260502152132 37 355 4.0 6.0 0.00 0.20 0.20 93 1015.3
20260502151630 36 341 4.0 5.0 0.00 0.20 0.20 94 1015.5
20260502151127 36 4 3.0 5.0 0.00 0.20 0.20 94 1015.3
20260502150624 36 343 2.0 2.0 0.00 0.20 0.20 95 1015.2
20260502150120 36 16 2.0 2.0 0.00 0.20 0.20 95 1015.2
20260502130509 34 6 8.0 10.0 0.00 0.19 0.19 99 1014.4
20260502123452 36 18 4.0 8.0 0.00 0.19 0.19 99 1014.2
20260502122949 36 34 1.0 2.0 0.00 0.19 0.19 99 1014.2
20260502122445 36 31 4.0 5.0 0.00 0.19 0.19 99 1014.3
20260502121943 35 16 5.0 6.0 0.00 0.19 0.19 99 1014.3
20260502121440 36 19 4.0 5.0 0.00 0.19 0.19 99 1014.2
20260502120938 36 25 2.0 2.0 0.00 0.19 0.19 99 1014.1
20260502120434 36 24 2.0 2.0 0.00 0.19 0.19 99 1014.2
20260502115931 36 9 3.0 3.0 0.00 0.19 0.19 99 1014.0
20260502115428 36 15 3.0 3.0 0.00 0.19 0.19 99 1013.8
20260502114924 36 39 0.0 0.0 0.00 0.19 0.19 99 1013.8
20260502114421 36 49 0.0 1.0 0.00 0.19 0.19 99 1013.9
20260502113918 36 41 0.0 0.0 0.00 0.19 0.19 99 1013.6
20260502113416 36 41 0.0 1.0 0.00 0.19 0.19 99 1013.8
20260502112915 36 41 0.0 0.0 0.00 0.19 0.19 99 1013.5
20260502112411 35 33 0.0 0.0 0.00 0.19 0.19 99 1013.7
20260502111909 35 36 0.0 0.0 0.00 0.19 0.19 99 1013.7
20260502111406 35 38 0.0 0.0 0.00 0.19 0.19 99 1013.4
20260502110903 36 34 0.0 0.0 0.00 0.19 0.19 99 1013.6
20260502110401 36 18 2.0 2.0 0.00 0.19 0.19 99 1013.8
20260502105858 36 28 0.0 0.0 0.00 0.19 0.19 99 1013.8
20260502105355 36 24 0.0 0.0 0.00 0.19 0.19 99 1013.6
20260502104853 36 23 2.0 2.0 0.00 0.19 0.19 99 1013.4
20260502104350 36 33 1.0 2.0 0.00 0.19 0.19 99 1013.4
20260502103847 36 25 2.0 2.0 0.00 0.19 0.19 99 1013.7
20260502103345 36 32 1.0 1.0 0.00 0.19 0.19 99 1013.5
20260502102841 36 32 0.0 0.0 0.00 0.19 0.19 99 1013.4
20260502102338 36 5 0.0 1.0 0.00 0.19 0.19 99 1013.6
20260502101836 36 12 0.0 0.0 0.00 0.19 0.19 99 1013.4
20260502101334 36 19 3.0 3.0 0.00 0.19 0.19 99 1013.5
20260502100832 37 23 1.0 2.0 0.00 0.19 0.19 99 1013.3
20260502100331 37 26 1.0 1.0 0.00 0.19 0.19 99 1013.1
20260502091304 37 175 0.0 0.0 0.00 0.19 0.19 99 1013.2
20260502090802 37 177 0.0 0.0 0.00 0.19 0.19 99 1013.0
20260502090258 37 177 0.0 0.0 0.00 0.19 0.19 99 1012.9
20260502071159 37 41 0.0 1.0 0.07 0.16 0.16 99 1013.1
20260502070657 37 41 3.0 3.0 0.00 0.15 0.15 99 1013.1
20260502070154 37 50 0.0 0.0 0.00 0.15 0.15 99 1013.2
20260502065653 37 49 2.0 2.0 0.00 0.15 0.15 99 1013.1
20260502065150 37 118 1.0 1.0 0.00 0.15 0.15 99 1013.1
20260502064649 37 159 0.0 0.0 0.00 0.15 0.15 99 1013.1
20260502064145 37 164 0.0 1.0 0.00 0.15 0.15 99 1013.0
20260502063643 37 182 4.0 5.0 0.00 0.15 0.15 99 1013.3
20260502063141 37 147 0.0 0.0 0.00 0.15 0.15 99 1013.1
20260502062637 37 147 1.0 2.0 0.00 0.15 0.15 99 1013.2
20260502062135 37 142 0.0 0.0 0.05 0.15 0.15 99 1013.3
20260502061633 37 142 0.0 0.0 0.05 0.15 0.15 99 1013.2
20260502061131 37 142 0.0 0.0 0.00 0.14 0.14 99 1013.4
20260502060631 37 142 0.0 0.0 0.00 0.14 0.14 99 1013.6
20260502060127 37 142 0.0 0.0 0.00 0.14 0.14 99 1013.4
20260502055626 37 143 1.0 1.0 0.00 0.14 0.14 99 1013.5
20260502055123 37 123 0.0 0.0 0.00 0.14 0.14 99 1013.3
20260502054622 37 131 0.0 1.0 0.00 0.14 0.14 99 1013.5
20260502054119 37 117 0.0 0.0 0.00 0.14 0.14 99 1013.8
20260502053616 37 116 0.0 0.0 0.00 0.14 0.14 99 1013.5
20260502053113 37 116 0.0 0.0 0.00 0.14 0.14 99 1013.5
20260502052612 37 104 0.0 0.0 0.00 0.14 0.14 99 1013.6
20260502052110 36 104 1.0 1.0 0.00 0.14 0.14 99 1013.9
20260502051607 37 99 0.0 0.0 0.00 0.14 0.14 99 1013.6
20260502051105 37 111 1.0 3.0 0.00 0.14 0.14 99 1013.8
20260502050601 37 100 0.0 0.0 0.00 0.14 0.14 99 1013.7
20260502050058 37 100 0.0 0.0 0.00 0.14 0.14 99 1013.7
20260502045554 37 95 0.0 0.0 0.07 0.14 0.14 99 1013.8
20260502045052 37 89 0.0 1.0 0.07 0.14 0.14 99 1013.8
20260502044548 37 69 1.0 1.0 0.12 0.13 0.13 99 1014.0
20260502044045 37 27 0.0 0.0 0.19 0.13 0.13 99 1014.1
20260502043542 36 13 0.0 0.0 0.12 0.11 0.11 99 1014.3
20260502043038 37 11 1.0 2.0 0.24 0.10 0.10 99 1014.3
20260502042533 36 16 1.0 1.0 0.31 0.09 0.09 99 1014.1
20260502042031 37 359 2.0 2.0 0.17 0.06 0.06 99 1014.1
20260502041529 37 345 1.0 1.0 0.17 0.04 0.04 99 1014.4
20260502041026 38 316 0.0 0.0 0.19 0.03 0.03 99 1014.3
20260502040522 38 309 2.0 2.0 0.14 0.01 0.01 98 1014.4
20260502040020 38 337 0.0 0.0 0.12 0.00 0.00 98 1014.3
20260502035515 38 351 2.0 2.0 0.12 0.40 0.40 98 1014.4
20260502035013 39 24 3.0 5.0 0.07 0.39 0.39 98 1014.0
20260502034511 39 336 2.0 2.0 0.00 0.38 0.38 98 1014.1
20260502034009 39 343 2.0 2.0 0.05 0.38 0.38 98 1014.0
20260502033507 39 45 0.0 0.0 0.05 0.38 0.38 98 1013.7
20260502033004 39 46 0.0 0.0 0.00 0.37 0.37 98 1013.7
20260502032459 39 46 0.0 1.0 0.00 0.37 0.37 98 1013.7
20260502031956 39 45 0.0 0.0 0.00 0.37 0.37 98 1013.6
20260502031455 39 45 0.0 0.0 0.00 0.37 0.37 98 1013.6
20260502030953 39 45 0.0 0.0 0.00 0.37 0.37 98 1013.2
20260502030450 38 45 0.0 1.0 0.00 0.37 0.37 98 1013.4
20260502025948 38 23 0.0 0.0 0.00 0.37 0.37 98 1013.4
20260502025445 39 21 0.0 0.0 0.00 0.37 0.37 98 1013.4
20260502024943 39 16 0.0 0.0 0.00 0.37 0.37 98 1013.5
20260502024441 39 16 0.0 0.0 0.00 0.37 0.37 98 1013.7
20260502023939 39 16 0.0 0.0 0.00 0.37 0.37 98 1013.6
20260502023436 39 16 0.0 0.0 0.00 0.37 0.37 98 1013.5
20260502022933 39 16 0.0 0.0 0.00 0.37 0.37 98 1013.5
20260502022430 38 16 0.0 0.0 0.00 0.37 0.37 97 1013.5
20260502021927 38 16 0.0 0.0 0.00 0.37 0.37 97 1013.4
20260502021424 38 14 0.0 0.0 0.00 0.37 0.37 97 1013.4
20260502020921 38 359 0.0 0.0 0.00 0.37 0.37 97 1013.4
20260502020419 38 359 0.0 0.0 0.00 0.37 0.37 97 1013.4
20260502015915 38 359 0.0 0.0 0.00 0.37 0.37 96 1013.3
20260502015413 38 359 0.0 0.0 0.00 0.37 0.37 96 1013.3
20260502014910 38 359 0.0 0.0 0.00 0.37 0.37 97 1013.4
20260502014407 38 359 0.0 0.0 0.00 0.37 0.37 96 1013.3
20260502013903 38 359 0.0 1.0 0.00 0.37 0.37 96 1013.2
20260502013358 38 358 0.0 0.0 0.00 0.37 0.37 96 1013.2
20260502012855 38 352 1.0 1.0 0.00 0.37 0.37 95 1013.0
20260502012353 38 351 0.0 1.0 0.00 0.37 0.37 94 1013.1
20260502011850 38 351 1.0 1.0 0.00 0.37 0.37 94 1012.8
20260502011346 38 350 0.0 0.0 0.00 0.37 0.37 94 1013.1
20260502010843 39 350 0.0 0.0 0.00 0.37 0.37 93 1013.2
20260502010340 39 350 0.0 1.0 0.00 0.37 0.37 94 1013.2
20260502005837 39 350 0.0 0.0 0.00 0.37 0.37 94 1012.9
20260502005335 39 350 0.0 0.0 0.00 0.37 0.37 93 1013.1
20260502004832 39 350 0.0 0.0 0.00 0.37 0.37 92 1013.2
20260502004328 40 350 1.0 1.0 0.00 0.37 0.37 92 1012.9
20260502003826 39 351 0.0 0.0 0.00 0.37 0.37 89 1012.7
20260502003322 40 351 0.0 0.0 0.00 0.37 0.37 88 1012.6
20260502002819 40 351 0.0 0.0 0.00 0.37 0.37 87 1012.4
20260502002316 40 351 0.0 0.0 0.00 0.37 0.37 87 1012.2
20260502001813 41 351 0.0 0.0 0.00 0.37 0.37 86 1012.3
20260502001311 41 351 0.0 0.0 0.00 0.37 0.37 85 1012.1
20260502000808 41 351 0.0 0.0 0.00 0.37 0.37 84 1012.1
20260502000307 42 351 1.0 1.0 0.00 0.37 0.37 82 1012.2
20260501235802 42 323 1.0 1.0 0.00 0.37 0.37 80 1012.0
20260501235258 42 322 1.0 2.0 0.00 0.37 0.37 80 1012.1
20260501234753 43 300 0.0 0.0 0.00 0.37 0.37 82 1012.1
20260501234251 42 307 1.0 1.0 0.00 0.37 0.37 82 1012.2
20260501233749 42 311 1.0 1.0 0.00 0.37 0.37 81 1012.2
20260501233246 42 291 0.0 0.0 0.00 0.37 0.37 81 1012.1
20260501232742 42 292 1.0 1.0 0.00 0.37 0.37 82 1012.3
20260501232239 42 304 0.0 1.0 0.00 0.37 0.37 84 1012.1
20260501231737 42 300 1.0 1.0 0.00 0.37 0.37 83 1012.0
20260501231235 42 301 1.0 1.0 0.00 0.37 0.37 82 1012.2
20260501230733 42 296 2.0 2.0 0.00 0.37 0.37 82 1012.2
20260501230231 42 324 1.0 1.0 0.00 0.37 0.37 83 1012.0
20260501225729 42 309 2.0 2.0 0.00 0.37 0.37 83 1012.1
20260501225226 42 343 0.0 0.0 0.00 0.37 0.37 80 1012.3
20260501224722 42 319 2.0 2.0 0.00 0.37 0.37 78 1012.1
20260501224219 42 337 5.0 6.0 0.00 0.37 0.37 79 1011.8
20260501223715 42 326 2.0 3.0 0.00 0.37 0.37 79 1011.9
20260501223212 42 6 3.0 3.0 0.00 0.37 0.37 81 1012.1
20260501222708 42 31 6.0 8.0 0.00 0.37 0.37 80 1011.8
20260501222205 42 347 5.0 6.0 0.00 0.37 0.37 81 1011.7
20260501221702 42 327 3.0 3.0 0.00 0.37 0.37 82 1011.4
20260501221159 42 24 3.0 5.0 0.00 0.37 0.37 83 1011.7
20260501220657 42 343 2.0 2.0 0.00 0.37 0.37 84 1011.9
20260501220154 42 11 5.0 7.0 0.00 0.37 0.37 84 1011.7
20260501215651 42 335 3.0 3.0 0.00 0.37 0.37 85 1011.8
20260501215146 42 4 6.0 8.0 0.00 0.37 0.37 83 1011.8
20260501214641 42 18 7.0 8.0 0.00 0.37 0.37 83 1011.6
20260501214137 43 327 5.0 6.0 0.00 0.37 0.37 84 1011.7
20260501213634 42 341 3.0 5.0 0.00 0.37 0.37 85 1011.8
20260501213130 42 37 5.0 7.0 0.00 0.37 0.37 86 1011.6
20260501212627 41 350 5.0 6.0 0.00 0.37 0.37 85 1011.6
20260501212123 41 338 3.0 3.0 0.00 0.37 0.37 86 1011.4
20260501211620 41 16 1.0 2.0 0.00 0.37 0.37 87 1011.6
20260501211118 41 24 3.0 5.0 0.00 0.37 0.37 87 1011.3
20260501210614 42 5 7.0 8.0 0.00 0.37 0.37 88 1011.5
20260501210111 41 21 5.0 6.0 0.00 0.37 0.37 89 1011.3
20260501205607 41 9 6.0 9.0 0.00 0.37 0.37 91 1011.2
20260501205105 41 39 2.0 2.0 0.00 0.37 0.37 92 1011.4
20260501204601 40 0 4.0 5.0 0.00 0.37 0.37 93 1011.2
20260501204057 40 1 5.0 6.0 0.00 0.37 0.37 94 1011.1
20260501203554 39 38 4.0 6.0 0.00 0.37 0.37 95 1011.1
20260501203051 39 47 2.0 2.0 0.00 0.37 0.37 95 1011.3
20260501202549 39 1 7.0 9.0 0.00 0.37 0.37 95 1011.3
20260501202045 39 38 2.0 3.0 0.00 0.37 0.37 95 1011.2
20260501201542 39 51 2.0 3.0 0.00 0.37 0.37 95 1011.2
20260501201039 39 33 4.0 6.0 0.00 0.37 0.37 95 1011.2
20260501200536 39 34 5.0 8.0 0.00 0.37 0.37 96 1011.0
20260501200033 39 17 11.0 13.0 0.00 0.37 0.37 96 1011.1
20260501195530 39 20 3.0 5.0 0.00 0.37 0.37 96 1011.1
20260501195026 39 25 11.0 14.0 0.00 0.37 0.37 96 1011.1
20260501194521 39 28 8.0 10.0 0.00 0.37 0.37 96 1011.0
20260501194017 39 8 14.0 17.0 0.00 0.37 0.37 96 1010.8
20260501193515 39 357 6.0 10.0 0.00 0.37 0.37 97 1010.9
20260501193014 40 6 10.0 13.0 0.00 0.37 0.37 97 1010.8
20260501192510 40 17 5.0 7.0 0.00 0.37 0.37 97 1010.4
20260501192008 41 356 9.0 11.0 0.00 0.37 0.37 97 1010.3
20260501191505 40 24 3.0 5.0 0.00 0.37 0.37 97 1010.5
20260501191002 41 45 1.0 2.0 0.07 0.37 0.37 97 1010.5
20260501190457 40 31 3.0 5.0 0.07 0.37 0.37 96 1010.4
20260501185953 40 324 5.0 6.0 0.00 0.36 0.36 96 1010.2
20260501185449 40 18 4.0 5.0 0.00 0.36 0.36 97 1010.5
20260501184945 40 1 4.0 5.0 0.05 0.36 0.36 97 1010.4
20260501184442 40 24 5.0 6.0 0.12 0.36 0.36 97 1010.2
20260501183936 40 27 4.0 7.0 0.07 0.35 0.35 97 1010.4
20260501183434 40 8 7.0 8.0 0.05 0.34 0.34 97 1010.3
20260501182930 40 11 3.0 3.0 0.05 0.34 0.34 97 1010.3
20260501182427 40 341 3.0 3.0 0.07 0.33 0.33 97 1010.1
20260501181924 40 355 6.0 9.0 0.07 0.33 0.33 97 1010.1
20260501181421 40 324 7.0 9.0 0.00 0.32 0.32 97 1010.0